Location: Unspecified
(0.0000°N, 0.0000°E)
Time: 03:47:30
(UTC+02:00)

GPS 2-15 Rocket1 - Visible Passes

Search period start: 19 October 2017 00:00
Search period end: 29 October 2017 00:00
Orbit: 624 x 676 km, 19.8° (Epoch: 18 October)

Date Brightness Start Highest point End Pass type
(mag) Time Alt. Az. Time Alt. Az. Time Alt. Az.
19 Oct 3.1 06:33:56 33° WNW 06:36:06 90° W 06:41:00 10° ESE visible
19 Oct 5.0 20:30:18 10° WNW 20:33:51 21° NNW 20:37:23 10° NNE visible
20 Oct 5.4 05:21:04 22° E 05:21:04 22° E 05:22:52 10° E visible
20 Oct 3.7 06:58:43 15° W 07:02:26 47° SSW 07:07:09 10° SE visible
20 Oct 5.4 20:58:17 10° NW 21:00:23 13° NNW 21:02:23 10° N visible
21 Oct 4.0 05:45:49 48° ESE 05:45:49 48° ESE 05:49:21 10° ESE visible
22 Oct 3.7 06:10:32 41° SSW 06:10:51 42° SSW 06:15:25 10° SE visible
22 Oct 5.5 20:06:58 10° NW 20:08:51 12° NNW 20:10:43 10° N visible
23 Oct 6.3 04:57:35 11° ESE 04:57:35 11° ESE 04:57:40 10° ESE visible
23 Oct 4.7 06:35:14 18° SW 06:37:15 24° SSW 06:41:08 10° SE visible
24 Oct 5.5 05:22:15 18° SE 05:22:15 18° SE 05:23:42 10° SE visible
24 Oct 5.4 07:01:09 10° SW 07:03:47 15° SSW 07:06:28 10° SSE visible
25 Oct 5.1 05:46:52 20° S 05:46:52 20° S 05:49:21 10° SSE visible
26 Oct 5.3 06:11:28 13° SSW 06:12:14 13° SSW 06:14:33 10° SSE visible
